Simultaneous Nadir Overpasses (SNOs) Predictions

Prediction of SNOs between METOP-B and TERRA Satellite Orbit:

Table of predicted SNOs for the next 14.0 days since TLE Epoch: 9/19/2020
Index Date (METOP-B) Time (METOP-B) Lat,Lon (METOP-B) SZA (METOP-B ) Date (TERRA) Time (TERRA) Lat,Lon (TERRA) SZA (TERRA ) Distance(km) Time Diff (sec)
1 09/19/2020 19:32:19 81.33, -65.23 83.29 09/19/2020 19:33:12 81.34, -65.38 83.30 2.56 53
2 09/19/2020 20:23:00 -81.33, 102.01 96.71 09/19/2020 20:22:39 -81.33, 102.15 96.70 2.29 21
3 09/22/2020 15:06:40 81.33, 0.91 84.38 09/22/2020 15:07:28 81.34, 1.01 84.41 1.68 48
4 09/22/2020 15:57:20 -81.34, 168.59 95.57 09/22/2020 15:56:55 -81.33, 168.57 95.59 0.56 25
5 09/25/2020 10:40:59 81.33, 67.43 85.51 09/25/2020 10:41:44 81.33, 67.24 85.50 3.36 45
6 09/25/2020 11:31:39 -81.34,-124.85 94.44 09/25/2020 11:31:10 -81.34,-124.79 94.44 1.17 29
7 09/28/2020 06:15:20 81.33, 133.54 86.58 09/28/2020 06:16:01 81.33, 133.69 86.62 2.55 41
8 09/28/2020 07:05:59 -81.34, -58.30 93.30 09/28/2020 07:05:27 -81.35, -58.30 93.32 0.81 32
9 10/01/2020 01:49:39 81.33,-159.58 87.75 10/01/2020 01:50:18 81.34,-159.63 87.77 1.04 39
